Location: Wald
(31.7579°N, 86.6655°W)
Time: 12:06:35
(UTC+00:00)

Alouette 2 Rocket - Pass Details

Date: 14 July 2020
Orbit: 502 x 2650 km, 79.8° (Epoch: 08 August)

Event Time Altitude Azimuth Distance (km) Brightness Sun altitude
Rises 02:07:38 0° 352° (N) 3,043 7.8 -14.2°
Reaches altitude 10° 02:09:33 10° 354° (N) 2,282 7.1 -14.5°
Maximum altitude 02:14:38 78° 82° (E) 1,015 4.5 -15.4°
Enters shadow 02:22:03 12° 168° (SSE) 3,317 6.8 -16.6°
